Wind_Speed
16 15 14 13 12 10 10 9 8 6 5 5 4 3 3 3 3 4 4 4 5 5 5 6 5 6 7 7 8 8 8 8 8 8 8 8 8 8 8 8 8 8 8 8 8 8 8 8 8
18 17 16 15 13 12 13 11 10 8 7 6 6 5 4 4 5 5 5 5 5 6 6 7 7 7 8 9 9 10 10 10 10 10 10 9 10 10 10 10 10 10 10 10 9 9 9 9 9
19 18 18 16 15 14 15 13 11 10 9 8 8 7 6 6 6 6 6 6 6 7 8 8 8 9 10 10 11 11 11 11 11 11 11 11 11 11 12 11 11 11 11 11 11 11 11 10 10
21 20 19 18 17 18 17 14 12 11 11 10 10 9 8 6 6 6 6 7 7 8 9 9 10 10 11 11 11 12 12 12 12 12 12 12 12 13 13 13 13 12 12 12 12 12 12 12 12
22 21 20 19 19 19 17 15 14 13 12 11 10 10 9 8 8 7 7 8 8 9 9 10 11 12 12 12 12 12 12 13 13 13 13 13 13 13 14 13 13 13 13 13 13 13 14 14 13
23 22 20 20 20 19 17 16 15 15 14 13 12 11 10 9 9 9 9 9 10 10 11 11 11 12 13 13 13 13 13 13 13 14 14 14 14 15 15 14 14 14 14 14 14 14 15 15 15
24 23 22 22 21 20 19 17 17 16 15 13 12 12 11 10 10 10 10 10 10 11 12 12 12 13 13 13 13 14 14 14 14 15 15 15 16 16 16 16 15 15 15 15 15 16 16 16 16
24 24 23 23 22 22 20 19 18 18 17 15 13 12 12 11 11 11 11 11 11 11 12 13 14 14 14 13 14 14 14 14 15 16 17 17 17 17 17 17 17 17 16 16 17 17 17 17 18
24 24 24 24 24 24 22 21 19 18 18 16 14 14 13 13 12 12 11 11 12 13 13 15 14 14 14 14 14 15 15 16 16 17 18 18 18 19 18 19 19 18 18 18 18 19 19 19 19
24 25 26 26 25 24 23 22 20 19 18 17 16 15 15 14 13 13 13 13 13 14 15 15 15 15 15 15 16 16 17 17 18 18 19 19 19 20 20 20 20 20 20 20 20 21 21 21 21
25 26 26 25 25 24 23 22 21 20 20 18 18 17 17 16 14 14 15 15 15 15 16 16 17 17 17 16 17 18 19 19 19 20 20 20 20 21 21 22 22 22 22 22 22 22 22 22 22
25 25 25 26 26 25 24 23 21 21 20 19 19 18 18 17 16 16 15 16 16 16 17 17 17 18 18 18 19 19 20 21 21 21 22 22 22 22 22 23 23 23 24 24 24 24 24 24 24
23 24 25 25 26 25 24 23 21 21 20 19 19 18 19 17 17 17 17 17 16 17 17 18 18 18 19 19 20 21 22 22 22 23 23 22 23 23 24 24 24 25 25 25 25 25 25 25 24
22 22 23 24 25 25 24 23 22 21 21 20 20 19 19 17 17 17 16 17 18 19 19 19 19 20 20 20 21 21 22 23 23 23 24 23 24 25 26 26 26 26 26 26 27 26 27 26 26
20 21 22 24 24 25 23 23 23 22 21 20 20 20 19 18 17 18 19 19 19 19 20 21 21 21 21 21 22 23 23 23 24 24 25 25 26 27 27 27 27 27 27 27 28 28 27 27 26
20 20 21 22 23 24 22 22 23 22 20 20 20 20 19 18 18 19 19 20 20 20 20 21 21 22 22 22 24 24 24 24 25 26 26 26 27 28 28 28 28 28 28 28 28 28 28 27 27
19 19 20 22 22 21 21 22 22 21 20 20 19 18 18 18 18 19 19 19 20 20 21 21 22 23 24 25 25 25 25 25 26 26 26 27 28 28 28 29 29 30 29 29 29 29 28 28 28
18 18 19 20 21 20 20 21 23 22 21 20 18 18 18 19 19 19 19 20 20 22 22 22 23 25 25 26 26 26 27 29 29 28 27 28 28 29 30 31 31 31 30 30 29 29 29 29 29
18 18 18 20 19 19 19 20 19 20 20 19 19 19 20 21 20 20 20 21 22 21 22 24 24 25 26 27 27 28 29 30 30 29 28 29 29 30 31 31 32 31 31 30 30 29 29 29 29
16 16 17 18 19 18 19 19 18 19 18 18 19 20 21 20 20 21 21 22 22 22 23 24 25 25 27 28 28 29 29 30 29 29 29 29 30 30 31 31 32 31 30 29 29 30 30 29 29
15 15 15 17 17 17 18 17 17 16 17 18 19 19 19 19 20 20 20 21 22 23 24 25 26 26 28 28 28 28 29 28 28 28 29 30 30 30 30 30 30 30 29 29 29 30 30 30 30
14 16 17 17 16 16 17 15 16 16 17 18 18 18 18 19 20 21 21 22 23 24 25 26 26 26 27 27 27 27 27 27 27 28 29 29 30 30 29 29 29 28 28 28 28 28 29 29 29
14 16 16 16 16 17 17 15 15 17 17 18 18 18 18 19 21 21 22 22 23 24 25 25 25 26 26 26 26 27 28 28 28 28 29 29 28 29 29 28 28 27 27 27 27 27 27 27 28
13 14 15 15 16 16 16 16 15 17 17 17 17 18 19 20 22 22 22 23 24 24 25 25 26 26 27 27 28 28 28 28 27 27 27 27 27 27 28 27 27 27 26 26 26 26 27 26 26
13 12 12 13 14 15 16 16 16 17 16 17 18 19 19 21 22 22 22 23 23 24 24 25 25 25 26 26 27 27 27 27 27 27 26 26 26 26 27 27 26 26 26 26 26 26 26 25 26
13 13 13 14 14 15 16 17 16 17 18 19 19 19 18 19 19 21 22 22 23 23 25 25 24 24 25 25 26 26 25 25 26 26 25 25 26 26 26 26 25 25 25 25 25 24 24 24 25
14 14 14 15 14 15 16 17 18 18 18 18 18 18 18 19 19 20 21 22 23 23 24 24 24 24 24 24 24 24 24 24 24 24 24 25 25 25 24 23 23 23 24 23 23 23 23 23 24
14 15 15 15 15 16 17 17 17 17 17 17 17 18 18 18 19 20 21 22 22 22 22 23 22 22 23 23 23 23 23 23 23 23 23 23 23 23 22 22 22 22 23 22 22 21 22 22 22
15 15 15 16 16 16 17 17 18 17 16 16 16 17 18 19 19 20 21 21 21 21 21 21 21 21 22 23 22 22 22 22 22 22 22 22 23 22 21 21 21 21 21 21 21 20 20 21 20
14 14 15 16 18 18 17 17 16 16 17 17 17 17 18 18 18 19 19 19 19 19 19 20 20 21 21 21 21 22 21 21 21 21 21 21 21 21 20 20 19 19 20 20 20 19 18 19 19
Wind_Direction
225 224 224 224 224 224 227 229 226 226 217 220 230 241 251 267 286 292 299 300 304 302 304 305 308 309 306 302 298 296 296 299 299 296 297 298 299 299 301 304 302 302 303 304 304 304 305 302 300
226 225 224 224 222 225 230 228 226 225 226 229 238 247 256 271 284 290 301 304 303 301 304 303 304 305 305 302 299 296 295 296 296 294 295 296 296 296 297 298 298 296 294 295 295 294 295 293 292
226 226 226 225 222 219 228 229 230 230 229 232 239 246 269 273 280 288 300 301 296 300 303 303 300 299 298 297 296 295 294 295 296 294 294 294 294 294 293 292 293 293 292 291 291 291 290 289 288
227 226 227 227 224 225 229 230 232 234 234 235 240 252 267 273 282 291 292 292 294 299 302 297 298 299 297 295 294 295 295 293 294 293 292 292 294 293 293 291 290 290 289 288 287 286 286 286 285
226 226 227 227 228 230 230 231 231 234 234 235 244 261 268 274 278 284 292 294 293 293 296 297 297 298 297 296 295 295 296 295 292 292 292 293 294 294 294 291 288 287 287 286 284 283 282 283 282
224 224 225 226 230 230 230 230 233 237 238 238 246 261 271 275 277 282 288 293 292 291 291 294 295 295 294 292 293 295 297 294 292 292 293 295 296 296 295 293 290 286 286 285 284 284 282 281 281
223 222 223 226 229 231 230 231 234 238 238 240 249 261 270 278 280 282 286 288 290 290 290 290 291 290 290 289 290 293 297 294 292 291 293 294 295 294 293 291 288 286 286 286 285 285 283 282 279
223 222 224 227 229 232 232 232 235 238 241 245 249 258 270 276 278 282 290 288 290 291 291 289 289 290 289 288 291 292 294 294 291 291 291 292 292 292 291 289 288 286 286 286 285 284 283 282 279
221 221 224 226 228 230 232 233 235 239 242 245 249 257 267 271 275 279 283 286 287 287 290 289 287 288 288 288 290 292 291 292 291 289 289 290 289 289 288 287 287 286 285 285 285 283 283 282 280
219 221 224 226 227 229 231 233 236 239 242 246 250 257 264 263 268 274 279 283 285 285 286 286 286 286 287 288 288 290 291 291 290 288 288 288 287 286 286 286 286 285 284 284 284 282 283 282 279
219 221 224 226 229 230 232 234 236 238 242 247 254 260 266 264 267 275 278 282 284 283 283 283 284 285 285 286 288 289 289 290 290 288 286 287 287 286 286 286 285 285 284 283 283 282 280 279 280
220 221 223 226 229 230 232 234 237 239 243 250 255 258 263 265 270 275 277 281 282 282 281 281 283 285 284 284 288 289 289 288 289 287 286 286 285 286 285 286 285 284 283 282 282 281 279 278 279
219 221 224 227 230 231 233 236 239 241 246 251 258 261 263 270 275 279 280 281 281 281 281 281 283 283 283 285 288 289 289 288 287 287 286 285 284 286 288 287 285 284 283 281 280 279 278 277 277
219 222 225 228 231 234 235 237 240 244 249 253 259 263 266 271 277 279 280 284 286 285 281 282 283 283 283 285 288 289 289 288 287 287 285 284 285 286 286 285 285 283 282 281 279 278 277 277 275
220 225 228 231 233 235 237 238 241 245 248 253 259 261 266 269 274 280 283 285 285 284 284 284 284 283 284 285 287 288 289 288 286 286 285 284 285 286 285 285 285 284 283 281 280 278 276 274 274
222 227 231 233 235 236 237 241 242 246 250 253 257 262 267 274 278 281 281 282 284 284 286 285 284 285 286 286 287 287 287 287 285 285 285 285 285 285 284 284 285 284 283 282 281 277 274 272 273
223 226 231 235 236 237 237 241 244 250 254 257 260 263 268 274 276 277 279 281 282 284 286 285 284 288 288 287 287 286 286 286 286 285 284 284 285 285 284 285 284 283 281 280 278 275 272 271 272
222 225 232 235 238 239 241 246 249 251 256 260 261 264 269 273 275 276 279 281 283 286 286 288 289 288 288 287 287 288 289 288 287 286 286 288 288 286 286 286 284 281 279 278 276 273 271 270 269
220 222 229 233 237 241 244 249 252 254 257 262 264 265 268 272 274 276 279 281 284 286 288 290 291 290 289 290 288 290 290 291 288 287 287 288 289 288 287 285 284 282 279 277 275 271 270 268 267
218 221 229 236 239 242 247 250 252 256 259 262 263 265 268 271 275 277 279 282 285 287 288 289 292 290 291 293 291 291 290 290 290 288 288 289 290 289 288 286 283 281 279 276 274 272 271 268 267
218 221 228 236 241 248 253 258 257 260 264 264 265 269 268 272 276 277 280 283 286 288 289 290 291 290 292 294 295 293 292 293 292 290 291 290 289 290 289 287 284 282 280 276 273 271 270 267 267
220 226 232 237 243 250 252 259 262 264 267 268 267 270 270 272 277 278 281 283 286 288 290 291 292 290 291 293 296 295 293 294 294 292 292 292 291 291 290 288 286 284 281 277 273 271 270 269 268
223 230 235 239 243 248 253 255 260 266 267 270 270 271 272 275 279 280 282 285 288 290 291 291 293 292 292 294 296 296 296 296 296 296 295 293 292 290 289 288 286 283 281 278 274 270 270 269 266
230 236 241 245 250 254 256 259 264 270 273 273 274 276 276 278 279 281 282 286 288 290 291 293 291 291 292 295 297 298 298 299 299 298 297 295 294 292 289 288 286 283 280 278 274 272 269 268 267
232 236 247 251 253 258 262 265 268 272 275 276 275 278 280 279 280 280 282 286 289 291 292 293 292 292 295 297 299 298 298 299 300 300 299 297 296 293 290 288 287 284 279 278 274 272 269 269 268
238 236 243 252 258 263 267 270 273 274 275 277 277 279 283 286 284 283 285 287 290 291 292 293 293 294 297 297 299 300 301 303 303 301 301 299 298 296 292 288 288 285 282 278 275 272 271 270 269
242 241 244 253 259 263 267 273 275 277 276 276 277 280 284 286 288 287 287 289 290 290 292 294 295 298 300 299 300 301 303 305 305 303 302 301 300 300 299 295 290 287 284 280 276 273 273 270 268
244 247 246 250 263 268 272 275 278 276 277 278 280 283 287 290 292 291 291 291 291 291 292 294 297 301 302 302 304 304 306 306 306 306 304 305 306 306 304 299 294 292 289 284 280 276 273 270 268
250 248 248 252 258 267 275 274 273 274 278 281 284 288 290 291 291 293 295 295 293 293 293 296 300 303 302 305 306 307 307 308 308 307 307 307 308 307 306 302 298 294 290 287 284 279 276 273 271
251 252 254 260 267 269 275 275 272 274 280 283 286 290 292 293 295 296 296 297 296 296 298 300 301 302 301 303 305 307 308 308 308 310 309 310 310 309 307 305 300 297 294 289 287 281 278 276 273
Height
5908 5910 5911 5914 5916 5918 5919 5919 5919 5920 5920 5920 5920 5919 5919 5919 5919 5921 5918 5915 5915 5914 5914 5913 5913 5912 5912 5911 5911 5910 5909 5908 5907 5906 5906 5905 5904 5904 5903 5902 5902 5901 5900 5900 5900 5899 5898 5898 5897
5905 5907 5909 5912 5914 5916 5917 5917 5918 5918 5918 5918 5918 5918 5917 5917 5917 5916 5915 5914 5913 5913 5912 5912 5911 5910 5910 5909 5909 5908 5907 5906 5905 5905 5904 5903 5902 5902 5901 5901 5900 5899 5898 5898 5897 5897 5896 5896 5895
5902 5904 5907 5909 5911 5914 5914 5915 5915 5916 5916 5916 5916 5916 5916 5916 5915 5914 5913 5913 5912 5911 5910 5910 5909 5909 5908 5907 5907 5906 5905 5904 5904 5903 5902 5901 5900 5900 5899 5898 5898 5897 5896 5896 5895 5895 5894 5893 5893
5898 5901 5904 5907 5908 5909 5910 5912 5913 5913 5914 5914 5914 5914 5914 5914 5913 5912 5911 5911 5910 5909 5908 5907 5907 5907 5906 5905 5904 5904 5903 5902 5901 5901 5900 5899 5898 5897 5896 5896 5895 5894 5894 5893 5893 5892 5892 5891 5891
5894 5898 5901 5903 5904 5906 5907 5909 5910 5911 5912 5912 5912 5912 5912 5911 5911 5910 5909 5909 5908 5907 5906 5905 5905 5904 5904 5903 5902 5901 5901 5900 5899 5898 5897 5897 5896 5894 5894 5893 5892 5892 5891 5890 5890 5889 5889 5888 5888
5891 5894 5898 5900 5901 5902 5904 5906 5907 5908 5909 5909 5910 5910 5909 5909 5909 5908 5907 5907 5906 5905 5904 5903 5902 5902 5901 5901 5900 5899 5898 5897 5896 5896 5895 5894 5893 5892 5891 5890 5889 5888 5888 5887 5887 5886 5886 5885 5885
5888 5891 5894 5896 5897 5899 5901 5903 5905 5906 5906 5907 5907 5907 5907 5907 5906 5906 5905 5904 5903 5903 5902 5901 5900 5899 5898 5898 5897 5896 5895 5894 5894 5893 5892 5891 5890 5889 5888 5887 5886 5885 5884 5884 5883 5882 5882 5882 5881
5883 5887 5889 5892 5894 5895 5898 5900 5901 5903 5904 5905 5905 5905 5904 5904 5903 5903 5902 5901 5901 5900 5900 5899 5898 5897 5895 5895 5894 5893 5892 5891 5891 5890 5889 5888 5886 5885 5884 5883 5882 5881 5881 5880 5879 5879 5878 5878 5877
5879 5884 5886 5888 5890 5892 5894 5897 5899 5900 5901 5902 5902 5902 5902 5901 5901 5900 5899 5899 5898 5898 5897 5896 5895 5894 5893 5892 5891 5890 5889 5888 5887 5886 5885 5884 5883 5881 5880 5879 5878 5877 5876 5876 5875 5874 5874 5873 5873
5875 5879 5881 5883 5885 5888 5891 5893 5895 5897 5898 5899 5899 5899 5899 5898 5898 5897 5896 5896 5895 5895 5894 5893 5892 5891 5890 5889 5888 5887 5886 5884 5883 5882 5881 5880 5879 5877 5876 5875 5874 5873 5872 5871 5870 5870 5869 5868 5868
5871 5874 5876 5879 5881 5884 5887 5890 5892 5894 5895 5896 5896 5896 5896 5895 5895 5894 5893 5893 5892 5892 5891 5890 5889 5888 5887 5885 5884 5883 5882 5880 5879 5878 5877 5876 5874 5873 5872 5871 5870 5869 5868 5867 5866 5865 5864 5863 5863
5867 5870 5872 5875 5878 5881 5884 5886 5889 5890 5892 5893 5893 5893 5892 5892 5891 5890 5890 5889 5889 5888 5887 5887 5886 5884 5883 5882 5881 5879 5878 5877 5875 5874 5873 5871 5870 5869 5867 5866 5865 5864 5863 5862 5861 5860 5859 5858 5857
5863 5866 5869 5872 5874 5877 5880 5883 5885 5887 5888 5889 5889 5889 5889 5888 5887 5887 5886 5886 5885 5885 5884 5883 5882 5881 5879 5878 5877 5875 5874 5872 5871 5870 5868 5867 5865 5864 5862 5861 5860 5858 5857 5856 5855 5854 5853 5853 5852
5860 5863 5866 5868 5871 5874 5877 5880 5882 5883 5885 5886 5886 5886 5886 5885 5885 5884 5883 5883 5882 5881 5880 5879 5878 5876 5875 5874 5872 5871 5869 5868 5866 5864 5863 5862 5860 5858 5857 5856 5854 5853 5852 5850 5849 5848 5847 5847 5846
5857 5861 5863 5865 5868 5871 5874 5876 5878 5880 5881 5882 5883 5883 5883 5882 5882 5881 5880 5879 5878 5877 5876 5875 5874 5872 5871 5870 5868 5866 5865 5863 5861 5859 5858 5856 5855 5853 5851 5849 5848 5847 5845 5844 5843 5842 5841 5840 5840
5856 5859 5861 5863 5865 5868 5873 5874 5875 5876 5877 5878 5879 5879 5879 5879 5879 5878 5877 5876 5875 5873 5872 5871 5870 5868 5867 5865 5863 5862 5859 5858 5856 5854 5852 5851 5849 5847 5844 5843 5841 5840 5838 5837 5836 5835 5834 5834 5833
5854 5857 5859 5861 5862 5865 5869 5870 5871 5872 5873 5874 5875 5875 5875 5875 5875 5874 5873 5872 5871 5870 5868 5867 5865 5863 5862 5860 5858 5856 5854 5852 5850 5848 5846 5844 5842 5840 5838 5836 5834 5832 5831 5829 5828 5827 5827 5827 5826
5853 5855 5857 5859 5860 5863 5865 5867 5867 5869 5870 5870 5871 5871 5871 5872 5871 5870 5869 5868 5867 5866 5864 5863 5861 5859 5856 5854 5852 5850 5848 5846 5844 5841 5839 5837 5835 5833 5831 5828 5826 5824 5823 5821 5820 5820 5820 5819 5819
5850 5853 5855 5856 5857 5860 5862 5863 5864 5865 5866 5867 5867 5868 5868 5868 5867 5866 5865 5864 5863 5861 5859 5858 5856 5854 5851 5849 5847 5844 5842 5840 5837 5835 5832 5830 5828 5826 5823 5820 5818 5816 5815 5813 5813 5812 5812 5812 5811
5847 5851 5852 5853 5855 5858 5859 5860 5861 5862 5862 5863 5863 5864 5864 5863 5863 5862 5861 5859 5858 5856 5855 5852 5850 5848 5846 5843 5840 5838 5835 5833 5830 5828 5825 5823 5820 5818 5815 5812 5810 5808 5806 5805 5804 5804 5804 5804 5804
5845 5849 5850 5851 5853 5854 5856 5858 5858 5858 5859 5859 5859 5859 5859 5859 5858 5857 5856 5855 5853 5852 5849 5847 5845 5843 5840 5837 5834 5831 5829 5826 5823 5821 5818 5816 5813 5810 5807 5804 5802 5800 5798 5797 5796 5796 5795 5796 5796
5843 5845 5847 5849 5851 5853 5854 5856 5855 5855 5855 5855 5855 5855 5855 5854 5853 5852 5851 5850 5848 5846 5844 5841 5839 5836 5834 5831 5828 5825 5822 5819 5816 5813 5810 5807 5805 5802 5799 5797 5794 5792 5790 5789 5788 5788 5788 5788 5788
5840 5842 5844 5846 5848 5850 5850 5852 5853 5851 5851 5851 5851 5851 5850 5849 5849 5847 5846 5844 5842 5840 5838 5836 5833 5831 5828 5825 5822 5819 5816 5812 5809 5805 5803 5800 5797 5794 5792 5789 5786 5784 5782 5781 5780 5780 5780 5780 5780
5838 5840 5842 5843 5845 5847 5847 5848 5850 5848 5847 5847 5847 5846 5845 5845 5843 5842 5840 5839 5837 5834 5832 5830 5827 5824 5822 5819 5815 5812 5809 5805 5802 5798 5795 5792 5789 5787 5784 5781 5779 5777 5775 5774 5773 5773 5772 5772 5772
5836 5839 5841 5842 5844 5845 5844 5844 5845 5844 5843 5843 5842 5842 5840 5839 5838 5837 5835 5833 5831 5828 5826 5823 5821 5818 5815 5812 5809 5805 5802 5799 5795 5792 5789 5786 5782 5779 5776 5774 5772 5770 5768 5767 5766 5765 5765 5764 5764
5833 5836 5840 5841 5842 5842 5840 5840 5841 5839 5839 5838 5838 5837 5836 5834 5833 5831 5829 5827 5825 5823 5820 5817 5815 5812 5809 5806 5803 5799 5796 5792 5789 5785 5782 5779 5776 5773 5770 5767 5765 5763 5761 5759 5758 5758 5757 5757 5757
5830 5832 5834 5836 5836 5837 5837 5836 5836 5834 5834 5833 5833 5832 5831 5829 5828 5826 5824 5822 5819 5817 5814 5811 5809 5806 5803 5800 5797 5794 5790 5786 5783 5780 5777 5773 5769 5766 5763 5760 5758 5756 5754 5753 5751 5750 5750 5750 5750
5828 5828 5829 5831 5832 5833 5833 5832 5832 5830 5829 5828 5828 5827 5826 5824 5823 5821 5818 5816 5813 5810 5808 5805 5803 5800 5798 5794 5791 5788 5784 5781 5778 5774 5771 5767 5764 5760 5757 5754 5752 5750 5748 5746 5744 5743 5743 5743 5742
5824 5825 5825 5827 5828 5829 5829 5831 5826 5825 5824 5824 5823 5822 5821 5819 5817 5815 5812 5810 5807 5805 5803 5800 5798 5795 5792 5789 5786 5783 5780 5776 5772 5769 5766 5762 5759 5755 5752 5749 5746 5744 5742 5740 5738 5737 5736 5736 5736
5820 5821 5822 5823 5823 5823 5823 5826 5821 5820 5820 5819 5819 5818 5816 5814 5812 5809 5807 5804 5802 5800 5798 5796 5793 5790 5788 5784 5781 5778 5775 5771 5768 5764 5761 5757 5754 5750 5747 5744 5741 5738 5736 5734 5732 5731 5730 5730 5729